Bryce Canyon, UT

3:50 AM MST on December 13, 2019 (GMT -0700)
Bryce Canyon

Weather History for KBCE - August, 2019

Change the Weather History Date:

Tuesday, August 20, 2019

  Actual Average Record
Temperature  
Mean Temperature 60 °F -  
Max Temperature 84 °F 74 °F 87 °F (1960)
Min Temperature 39 °F 43 °F 31 °F (1980)
Degree Days  
Heating Degree Days 4    
Growing Degree Days 10 (Base 50)    
Moisture  
Dew Point 26 °F    
Average Humidity 31    
Maximum Humidity 58    
Minimum Humidity 10    
Precipitation  
Precipitation 0.00 in - - ()
Sea Level Pressure  
Sea Level Pressure 30.00 in    
Wind  
Wind Speed 8 mph (WSW)    
Max Wind Speed 13 mph    
Max Gust Speed 22 mph    
Visibility 9 miles    
Events      
Averages and records for this station are not official NWS values.
T = Trace of Precipitation, MM = Missing Value Source: NWS Daily Summary

Daily Weather History Graph

Daily Weather History Graph

Search for Another Location

Airport or City:

Astronomy

Aug. 20, 2019 Rise Set
Actual Time 6:48 AM MDT 8:14 PM MDT
Civil Twilight 6:20 AM MDT 8:42 PM MDT
Nautical Twilight 5:47 AM MDT 9:15 PM MDT
Astronomical Twilight 5:12 AM MDT 9:50 PM MDT
Moon 11:10 PM MDT (8/20) 11:25 AM MDT (8/20)
Length of Visible Light 14h 21m
Length of Day
13h 26m
Waning Gibbous, 77% of the Moon is Illuminated
Aug 20
Waning Gibbous
Aug 23
Last Quarter
Aug 30
New
Sep 5
First Quarter
Sep 13
Full

Hourly Weather History & Observations

Time (MDT) Temp. Windchill Dew Point Humidity Pressure Visibility Wind Dir Wind Speed Gust Speed Precip Events Conditions
12:53 AM 50.0 °F - 24.1 °F 36% 29.99 in 6.0 mi West 10.4 mph - N/A   Haze
1:53 AM 45.0 °F 41.2 °F 25.0 °F 46% 30.02 in 6.0 mi West 6.9 mph - N/A   Haze
2:53 AM 46.9 °F - 24.1 °F 41% 30.00 in 9.0 mi West 10.4 mph - N/A   Clear
3:53 AM 42.1 °F 40.2 °F 25.0 °F 51% 30.02 in 10.0 mi West 3.5 mph - N/A   Clear
4:53 AM 39.9 °F 35.8 °F 26.1 °F 58% 30.04 in 8.0 mi West 5.8 mph - N/A   Clear
5:53 AM 42.1 °F 36.6 °F 26.1 °F 53% 30.03 in 10.0 mi West 9.2 mph - N/A   Clear
6:53 AM 39.9 °F 36.7 °F 26.1 °F 58% 30.06 in 10.0 mi WSW 4.6 mph - N/A   Clear
7:53 AM 46.9 °F - 30.0 °F 52% 30.06 in 7.0 mi West 8.1 mph - N/A   Clear
8:53 AM 60.1 °F - 33.1 °F 36% 30.08 in 5.0 mi West 3.5 mph - N/A   Haze
9:53 AM 71.1 °F - 30.9 °F 23% 30.04 in 10.0 mi Calm Calm - N/A   Clear
10:53 AM 75.0 °F - 27.0 °F 17% 30.05 in 10.0 mi Calm Calm - N/A   Clear
11:53 AM 78.1 °F - 27.0 °F 15% 30.04 in 10.0 mi South 11.5 mph 17.3 mph N/A   Clear
12:53 PM 80.1 °F - 27.0 °F 14% 30.01 in 10.0 mi ESE 11.5 mph 19.6 mph N/A   Clear
1:53 PM 82.0 °F - 19.9 °F 10% 30.00 in 10.0 mi South 9.2 mph 21.9 mph N/A   Clear
2:53 PM 82.0 °F - 21.9 °F 11% 29.98 in 10.0 mi South 12.7 mph - N/A   Clear
3:53 PM 82.9 °F - 21.9 °F 11% 29.97 in 10.0 mi SSW 12.7 mph 18.4 mph N/A   Clear
4:53 PM 82.9 °F - 21.0 °F 10% 29.96 in 10.0 mi WSW 12.7 mph 17.3 mph N/A   Partly Cloudy
5:53 PM 82.0 °F - 21.9 °F 11% 29.96 in 10.0 mi SSW 11.5 mph - N/A   Partly Cloudy
6:53 PM 81.0 °F - 25.0 °F 13% 29.96 in 10.0 mi SSW 8.1 mph - N/A   Clear
7:53 PM 73.9 °F - 28.0 °F 18% 29.96 in 10.0 mi SW 5.8 mph - N/A   Clear
8:53 PM 57.9 °F - 35.1 °F 42% 29.99 in 10.0 mi WSW 4.6 mph - N/A   Clear
9:53 PM 57.0 °F - 28.0 °F 33% 29.96 in 10.0 mi West 10.4 mph - N/A   Clear
10:53 PM 54.0 °F - 27.0 °F 35% 29.96 in 9.0 mi WSW 4.6 mph - N/A   Clear
11:53 PM 50.0 °F - 26.1 °F 39% 29.97 in 7.0 mi WSW 5.8 mph - N/A   Clear